This demonstration page uses our WeatherBlox Daily Observations layout. Learn more.

Left ArrowRight Arrow

39.08367, -84.50855

Hourly Observations for December 27, 2019

Temp ( °F °C ) Dew Point ( °F °C ) Humidity (%) Winds ( mph kmh ) Pressure ( in mb ) Visibility ( mi km ) Precip ( " mm )
12:53 am 00:53 Cloudy 55 12.8 48 8.9 77 77 undefined N/A 30.14 1021 10 16 N/A
1:53 am 01:53 Mostly Cloudy 51 10.6 47 8.3 86 86 undefined N/A 30.14 1021 10 16 N/A
2:53 am 02:53 Cloudy 50 10 46 7.8 86 86 undefined N/A 30.15 1021 10 16 N/A
3:53 am 03:53 Cloudy 50 10 47 8.3 89 89 undefined N/A 30.16 1021 10 16 N/A
4:53 am 04:53 Cloudy 50 10 47 8.3 89 89 undefined N/A 30.16 1021 10 16 N/A
5:12 am 05:12 Cloudy 50 10 47 8.3 89 89 undefined N/A 30.18 1022 10 16 N/A
5:53 am 05:53 Cloudy 50 10 47 8.3 89 89 undefined N/A 30.17 1022 10 16 N/A
6:06 am 06:06 Cloudy 49 9.4 46 7.8 90 90 undefined N/A 30.19 1022 10 16 N/A
6:16 am 06:16 Cloudy 53 11.7 47 8.3 80 80 undefined N/A 30.18 1022 10 16 N/A
6:53 am 06:53 Cloudy 54 12.2 48 8.9 80 80 undefined N/A 30.19 1022 10 16 N/A
7:53 am 07:53 Cloudy 52 11.1 47 8.3 83 83 N N/A 30.21 1023 10 16 N/A
8:53 am 08:53 Cloudy 55 12.8 49 9.4 80 80 N N/A 30.22 1023 10 16 N/A
9:53 am 09:53 Cloudy 57 13.9 51 10.6 81 81 SSW 6 9 30.23 1024 10 16 N/A
10:53 am 10:53 Cloudy 58 14.4 52 11.1 81 81 SW 7 11 30.25 1024 10 16 N/A
11:53 am 11:53 Cloudy 61 16.1 53 11.7 75 75 SW 7 11 30.23 1024 10 16 N/A
12:53 pm 12:53 Mostly Cloudy 61 16.1 52 11.1 72 72 SW 7 11 30.21 1023 10 16 N/A
1:53 pm 13:53 Cloudy 62 16.7 52 11.1 70 70 SW 8 13 30.19 1023 10 16 N/A
2:32 pm 14:32 Mostly Cloudy 61 16.1 52 11.1 72 72 WNW 7 11 30.19 1022 10 16 N/A
2:53 pm 14:53 Mostly Cloudy 61 16.1 51 10.6 70 70 WNW 5 7 30.19 1022 10 16 N/A
3:53 pm 15:53 Mostly Cloudy 61 16.1 51 10.6 70 70 NNW 5 7 30.20 1023 10 16 N/A
4:53 pm 16:53 Mostly Sunny 58 14.4 50 10 75 75 NNW 6 9 30.22 1024 10 16 N/A
5:53 pm 17:53 Mostly Cloudy 55 12.8 48 8.9 77 77 N 7 11 30.23 1024 10 16 N/A
6:53 pm 18:53 Mostly Cloudy 51 10.6 47 8.3 86 86 NNE 3 6 30.24 1024 10 16 N/A
7:00 pm 19:00 Clear 51 10.6 47 8.3 86 86 N 3 6 30.25 1024 9 14 N/A
7:07 pm 19:07 Mostly Cloudy 51 10.6 47 8.3 86 86 NNE 3 6 30.25 1024 9 14 N/A
7:53 pm 19:53 Mostly Cloudy 49 9.4 46 7.8 90 90 NE 3 6 30.25 1024 8 13 N/A
8:53 pm 20:53 Mostly Cloudy with Mist and Fog 46 7.8 45 7.2 96 96 N N/A 30.26 1025 5 8 N/A
9:40 pm 21:40 Mostly Cloudy 49 9.4 45 7.2 86 86 NNW 7 11 30.29 1026 9 14 N/A
9:53 pm 21:53 Cloudy 49 9.4 44 6.7 83 83 NNE 5 7 30.28 1025 9 14 N/A
10:53 pm 22:53 Cloudy 48 8.9 44 6.7 86 86 NE 5 7 30.27 1025 8 13 N/A
11:20 pm 23:20 Cloudy 48 8.9 45 7.2 89 89 NNE 5 7 30.28 1025 7 11 N/A
11:35 pm 23:35 Cloudy with Mist and Fog 48 8.9 45 7.2 89 89 NE 5 7 30.27 1025 6 10 N/A
11:53 pm 23:53 Cloudy with Mist and Fog 48 8.9 45 7.2 89 89 N 3 6 30.26 1025 6 10 N/A

Powered by AerisWeather